Regional Weather Roundup
Issued by NWS

Home | Current Version | Previous Version | Graphics & Text | Print | Product List | Glossary On
Versions: 1 2 3 4 5 6 7 8 9 10 11 12 13 14 15 16 17 18 19 20 21 22 23 24 25 26 27 28 29 30 31 32 33 34 35 36 37 38 39 40 41 42 43 44 45 46 47 48 49 50
000
ASUS43 KFSD 230802
RWRSD

WEATHER ROUNDUP FOR SOUTH DAKOTA
NATIONAL WEATHER SERVICE SIOUX FALLS SD
300 AM CDT WED JUL 23 2014

NOTE: "FAIR" INDICATES FEW OR NO CLOUDS BELOW 12,000 FEET WITH NO
SIGNIFICANT WEATHER AND/OR OBSTRUCTIONS TO VISIBILITY.


SDZ001>005-009-010-012>017-230900-
NORTHWEST AND NORTH CENTRAL SOUTH DAKOTA

CITY           SKY/WX    TMP DP  RH WIND       PRES   REMARKS
BUFFALO          N/A     63  59  87 E7        30.17S
FAITH            N/A     64  61  90 E6        30.23F
MOBRIDGE       MOCLDY    65  61  87 E8        30.24R
$$

SDZ012>016-024>037-041>051-057-063-072>074-230900-
SOUTHWEST AND SOUTH CENTRAL SOUTH DAKOTA

CITY           SKY/WX    TMP DP  RH WIND       PRES   REMARKS
RAPID CTY ARPT TSTM      60  57  89 S33G40    30.27F FOG
PIERRE         MOCLDY    66  59  78 E8        30.22R
CUSTER         CLOUDY    56  53  90 N7        30.44F
ELLSWORTH AFB  MOCLDY    64  59  83 S24G54    30.18F THUNDER
PHILIP         CLOUDY    71  58  63 E5        30.24R
PINE RIDGE     PTCLDY    68  64  87 SE13      30.27F
WINNER         FAIR      69  58  67 SE7       30.23S
$$

SDZ004>011-016>023-039-040-230900-
NORTHEAST SOUTH DAKOTA

CITY           SKY/WX    TMP DP  RH WIND       PRES   REMARKS
ABERDEEN       CLEAR     59  58  96 E8        30.25S
WATERTOWN      CLEAR     58  55  90 N3        30.26F
SISSETON         N/A     58  56  93 CALM      30.25F
$$

SDZ017-020-022-023-036>040-048>070-230900-
SOUTHEAST SOUTH DAKOTA

CITY           SKY/WX    TMP DP  RH WIND       PRES   REMARKS
SIOUX FALLS    PTCLDY    61  56  83 N6        30.24F
HURON          CLEAR     63  58  83 E7        30.23F
CHAMBERLAIN    MOCLDY    64  58  82 SE6       30.24S
MITCHELL       CLEAR     63  60  90 E6        30.24S
YANKTON        PTCLDY    63  57  82 NE6       30.23S
$$

ABBREVIATIONS USED IN REMARKS
   TC - TEMPERATURE IN CELSIUS
  WCI - WIND CHILL INDEX
   HX - HEAT INDEX
  VSB - VISIBILITY



USA.gov is the U.S. government's official web portal to all federal, state and local government web resources and services.